FW0103 Weather Reports


time (UTC)temp
C
wind
direction
speed
KPH
gust
KPH
rain 1hr
cm
rain 24hr
cm
rain mn
cm
humidity
%
barometer
mb
20180424155326 24 285 3.2 8.0 0.00 0.00 0.00 60 1013.7
20180424154818 24 287 3.2 8.0 0.00 0.00 0.00 62 1013.7
20180424154325 24 256 4.8 8.0 0.00 0.00 0.00 60 1013.5
20180424153816 24 269 3.2 6.4 0.00 0.00 0.00 62 1013.6
20180424153318 24 283 3.2 6.4 0.00 0.00 0.00 65 1013.7
20180424152825 24 259 1.6 6.4 0.00 0.00 0.00 64 1013.7
20180424152331 23 283 1.6 6.4 0.00 0.00 0.00 64 1013.8
20180424151822 23 277 0.0 8.0 0.00 0.00 0.00 65 1013.8
20180424151329 23 257 3.2 8.0 0.00 0.00 0.00 64 1013.8
20180424150819 23 266 3.2 6.4 0.00 0.00 0.00 65 1013.9
20180424150325 23 319 1.6 6.4 0.00 0.00 0.00 66 1014.0
20180424145814 23 282 3.2 8.0 0.00 0.00 0.00 68 1014.0
20180424145323 23 265 3.2 8.0 0.00 0.00 0.00 70 1014.0
20180424144822 22 252 3.2 8.0 0.00 0.00 0.00 70 1014.0
20180424144327 22 290 3.2 6.4 0.00 0.00 0.00 70 1014.0
20180424143818 22 266 3.2 6.4 0.00 0.00 0.00 72 1014.0
20180424143325 22 262 1.6 6.4 0.00 0.00 0.00 72 1014.1
20180424142820 22 255 0.0 6.4 0.00 0.00 0.00 73 1014.1
20180424142328 22 262 3.2 9.7 0.00 0.00 0.00 71 1014.0
20180424141822 22 283 3.2 9.7 0.00 0.00 0.00 71 1014.1
20180424141329 23 288 3.2 8.0 0.00 0.00 0.00 69 1014.1
20180424140815 23 231 3.2 6.4 0.00 0.00 0.00 68 1014.2
20180424140326 23 292 1.6 4.8 0.00 0.00 0.00 67 1014.1
20180424135835 23 276 3.2 8.0 0.00 0.00 0.00 66 1014.1
20180424135323 23 264 3.2 6.4 0.00 0.00 0.00 67 1014.0
20180424134829 23 70 1.6 3.2 0.00 0.00 0.00 65 1014.1
20180424134320 24 79 0.0 1.6 0.00 0.00 0.00 64 1014.2
20180424133823 24 243 0.0 0.0 0.00 0.00 0.00 63 1014.1
20180424133316 24 243 0.0 0.0 0.00 0.00 0.00 65 1014.0
20180424132823 23 254 0.0 0.0 0.00 0.00 0.00 66 1014.2
20180424132314 23 255 0.0 1.6 0.00 0.00 0.00 64 1014.2
20180424131824 23 264 0.0 3.2 0.00 0.00 0.00 63 1014.2
20180424131314 23 134 1.6 3.2 0.00 0.00 0.00 66 1014.1
20180424130823 23 114 1.6 4.8 0.00 0.00 0.00 67 1014.2
20180424130313 23 160 1.6 6.4 0.00 0.00 0.00 69 1014.2
20180424125823 23 70 1.6 6.4 0.00 0.00 0.00 67 1014.3
20180424125329 22 196 0.0 4.8 0.00 0.00 0.00 70 1014.3
20180424124836 22 112 3.2 4.8 0.00 0.00 0.00 69 1014.4
20180424124325 22 73 0.0 3.2 0.00 0.00 0.00 70 1014.4
20180424123817 22 336 0.0 3.2 0.00 0.00 0.00 70 1014.6
20180424123323 22 21 0.0 3.2 0.00 0.00 0.00 70 1014.6
20180424122817 22 331 1.6 4.8 0.00 0.00 0.00 70 1014.7
20180424122325 22 63 0.0 4.8 0.00 0.00 0.00 70 1014.7
20180424121820 22 63 1.6 8.0 0.00 0.00 0.00 72 1014.7
20180424121331 22 60 4.8 8.0 0.00 0.00 0.00 70 1014.7
20180424120823 22 75 1.6 6.4 0.00 0.00 0.00 72 1014.7
20180424120319 22 65 3.2 6.4 0.00 0.00 0.00 75 1014.7
20180424115823 22 91 3.2 6.4 0.00 0.00 0.00 74 1014.9
20180424115318 21 65 3.2 6.4 0.00 0.00 0.00 73 1014.8
20180424114827 21 82 3.2 9.7 0.00 0.00 0.00 74 1014.9
20180424114313 22 63 3.2 9.7 0.00 0.00 0.00 73 1014.8
20180424113823 22 48 3.2 8.0 0.00 0.00 0.00 74 1014.8
20180424113332 22 39 1.6 9.7 0.00 0.00 0.00 75 1014.9
20180424112820 22 54 4.8 9.7 0.00 0.00 0.00 74 1014.8
20180424112313 22 64 3.2 8.0 0.00 0.00 0.00 74 1014.8
20180424111822 22 53 3.2 8.0 0.00 0.00 0.00 72 1014.8
20180424111314 22 124 1.6 8.0 0.00 0.00 0.00 74 1014.6
20180424110817 22 281 1.6 9.7 0.00 0.00 0.00 74 1014.5
20180424110331 21 59 3.2 9.7 0.00 0.00 0.00 75 1014.7
20180424105832 21 4 1.6 8.0 0.00 0.00 0.00 75 1014.6
20180424105321 21 256 1.6 6.4 0.00 0.00 0.00 76 1014.4
20180424104830 21 250 3.2 6.4 0.00 0.00 0.00 76 1014.3
20180424104322 21 240 1.6 6.4 0.00 0.00 0.00 78 1014.2
20180424103832 21 264 3.2 6.4 0.00 0.00 0.00 77 1014.1
20180424103321 21 257 1.6 4.8 0.00 0.00 0.00 77 1014.1
20180424102817 21 253 1.6 6.4 0.00 0.00 0.00 78 1014.1
20180424102329 21 288 3.2 6.4 0.00 0.00 0.00 77 1014.1
20180424101821 21 330 1.6 4.8 0.00 0.00 0.00 78 1014.0
20180424101330 21 262 1.6 4.8 0.00 0.00 0.00 79 1014.0
20180424100820 20 359 0.0 3.2 0.00 0.00 0.00 80 1014.0
20180424100329 20 283 0.0 4.8 0.00 0.00 0.00 81 1013.9
20180424095817 20 285 0.0 11.3 0.00 0.00 0.00 82 1013.7
20180424095329 20 274 4.8 11.3 0.00 0.00 0.00 81 1013.4
20180424094819 20 268 3.2 11.3 0.00 0.00 0.00 83 1013.2
20180424094315 20 285 6.4 12.9 0.00 0.00 0.00 83 1013.2
20180424093826 20 271 6.4 14.5 0.00 0.00 0.00 82 1013.2
20180424093321 20 264 6.4 14.5 0.00 0.00 0.00 81 1013.2
20180424092828 20 234 4.8 14.5 0.00 0.00 0.00 81 1013.3
20180424092324 20 265 8.0 14.5 0.00 0.00 0.00 79 1013.3
20180424091829 20 266 6.4 8.0 0.00 0.00 0.00 80 1013.4
20180424091322 20 264 3.2 8.0 0.00 0.00 0.00 79 1013.4
20180424090832 20 252 3.2 6.4 0.00 0.00 0.00 79 1013.4
20180424090324 20 251 1.6 6.4 0.00 0.00 0.00 79 1013.5
20180424085831 19 271 3.2 6.4 0.00 0.00 0.00 80 1013.3
20180424085322 19 255 3.2 6.4 0.00 0.00 0.00 83 1013.2
20180424084814 18 269 3.2 6.4 0.00 0.00 0.00 85 1013.2
20180424084327 18 257 1.6 4.8 0.00 0.00 0.00 87 1013.4
20180424083822 18 245 1.6 3.2 0.00 0.00 0.00 88 1013.5
20180424083330 17 76 0.0 0.0 0.00 0.00 0.00 89 1013.6
20180424082820 17 76 0.0 0.0 0.00 0.00 0.00 90 1013.7
20180424082315 17 76 0.0 0.0 0.00 0.00 0.00 90 1013.7
20180424081828 17 76 0.0 0.0 0.00 0.00 0.00 91 1013.8
20180424081318 17 77 0.0 0.0 0.00 0.00 0.00 91 1013.8
20180424080815 17 77 0.0 0.0 0.00 0.00 0.00 92 1013.7
20180424080324 17 77 0.0 0.0 0.00 0.00 0.00 93 1013.7
20180424075819 16 77 0.0 0.0 0.00 0.10 0.00 93 1013.7
20180424075328 16 77 0.0 0.0 0.00 0.10 0.00 93 1013.6
20180424074813 16 74 0.0 0.0 0.00 0.10 0.00 93 1013.5
20180424074324 16 73 0.0 0.0 0.00 0.10 0.00 94 1013.5
20180424073829 16 267 0.0 0.0 0.00 0.10 0.00 94 1013.3
20180424073315 16 267 0.0 0.0 0.00 0.10 0.00 94 1013.2
20180424072816 16 267 0.0 0.0 0.00 0.10 0.00 94 1013.2
20180424072324 15 267 0.0 0.0 0.00 0.10 0.00 94 1013.2
20180424071827 15 267 0.0 0.0 0.00 0.10 0.00 94 1013.3
20180424071316 15 267 0.0 0.0 0.00 0.10 0.00 93 1013.4
20180424070821 15 267 0.0 0.0 0.00 0.10 0.00 93 1013.3
20180424070330 15 267 0.0 0.0 0.00 0.10 0.00 93 1013.5
20180424065832 15 267 0.0 0.0 0.00 0.10 0.00 93 1013.6
20180424065321 15 267 0.0 0.0 0.00 0.10 0.00 93 1013.3
20180424064830 15 267 0.0 0.0 0.00 0.10 0.00 93 1013.5
20180424064314 15 267 0.0 0.0 0.00 0.10 0.00 93 1013.6
20180424063825 15 267 0.0 0.0 0.00 0.10 0.00 92 1013.6
20180424063332 15 4 0.0 3.2 0.00 0.10 0.00 93 1013.3
20180424062823 15 85 0.0 4.8 0.00 0.10 0.00 92 1013.6
20180424062329 15 252 3.2 4.8 0.00 0.10 0.00 92 1013.1
20180424061815 15 130 0.0 3.2 0.00 0.10 0.00 92 1013.7
20180424061322 15 14 0.0 0.0 0.00 0.10 0.00 91 1013.5
20180424060826 15 13 0.0 1.6 0.00 0.10 0.00 91 1013.3
20180424060324 15 13 0.0 1.6 0.00 0.10 0.00 91 1013.3
20180424055812 15 248 0.0 1.6 0.00 0.10 0.00 90 1013.2
20180424055315 15 248 0.0 0.0 0.00 0.10 0.00 90 1012.9
20180424054824 15 248 0.0 0.0 0.00 0.10 0.00 89 1012.9
20180424054328 15 248 0.0 0.0 0.00 0.10 0.00 88 1013.0
20180424053820 15 248 0.0 0.0 0.00 0.10 0.00 88 1013.0
20180424053327 15 248 0.0 0.0 0.00 0.10 0.00 87 1013.0
20180424052813 16 248 0.0 0.0 0.00 0.10 0.00 86 1012.8
20180424052326 16 248 0.0 0.0 0.00 0.10 0.00 86 1012.7
20180424051832 16 248 0.0 1.6 0.00 0.10 0.00 85 1012.7
20180424051323 16 248 0.0 1.6 0.00 0.10 0.00 85 1012.6
20180424050827 16 248 0.0 0.0 0.00 0.10 0.00 85 1012.4
20180424050318 16 248 0.0 1.6 0.00 0.10 0.00 85 1012.3
20180424045824 16 248 0.0 4.8 0.00 0.10 0.00 85 1012.3
20180424045316 16 269 1.6 3.2 0.00 0.10 0.00 85 1012.4
20180424044818 16 268 1.6 3.2 0.00 0.10 0.00 85 1012.5
20180424044314 17 266 0.0 1.6 0.00 0.10 0.00 84 1012.5
20180424043824 17 259 0.0 3.2 0.00 0.10 0.00 84 1012.5
20180424043318 17 245 0.0 3.2 0.00 0.10 0.00 84 1012.5
20180424042827 17 273 0.0 3.2 0.00 0.10 0.00 85 1012.5
20180424042317 17 345 0.0 6.4 0.00 0.10 0.00 86 1012.5
20180424041826 17 110 0.0 1.6 0.00 0.10 0.00 87 1012.6
20180424041321 16 129 0.0 3.2 0.00 0.10 0.00 89 1012.5
20180424040826 16 10 0.0 4.8 0.00 0.10 0.00 90 1012.6
20180424040324 16 24 0.0 4.8 0.00 0.10 0.00 91 1012.5
20180424035833 15 65 0.0 3.2 0.00 0.10 0.00 91 1012.5
20180424035324 15 77 0.0 0.0 0.00 0.10 0.00 91 1012.4
20180424034820 15 77 0.0 0.0 0.00 0.10 0.00 91 1012.5
20180424034330 15 77 0.0 0.0 0.00 0.10 0.00 90 1012.7
20180424033820 15 76 0.0 0.0 0.00 0.10 0.00 90 1012.6
20180424033316 15 77 0.0 0.0 0.00 0.10 0.00 89 1012.8
20180424032823 15 76 0.0 0.0 0.00 0.10 0.00 88 1012.8
20180424032317 15 77 0.0 0.0 0.00 0.10 0.00 88 1012.7
20180424031825 15 77 0.0 0.0 0.00 0.10 0.00 87 1012.7
20180424031318 16 76 0.0 0.0 0.00 0.10 0.00 86 1012.7
20180424030819 16 76 0.0 0.0 0.00 0.10 0.00 85 1012.8
20180424030325 16 76 0.0 0.0 0.00 0.10 0.00 83 1012.6
20180424025827 17 76 0.0 0.0 0.00 0.10 0.00 83 1012.6
20180424025314 17 76 0.0 4.8 0.00 0.10 0.00 83 1012.7
20180424024833 17 76 0.0 4.8 0.00 0.10 0.00 82 1012.6
20180424024326 17 92 0.0 1.6 0.00 0.10 0.00 81 1012.5
20180424023830 17 92 0.0 1.6 0.00 0.10 0.00 80 1012.3
20180424023334 17 92 0.0 1.6 0.00 0.10 0.00 79 1012.4
20180424022815 17 104 0.0 3.2 0.00 0.10 0.00 79 1012.4
20180424022321 18 102 0.0 3.2 0.00 0.10 0.00 79 1012.5
20180424021824 18 85 0.0 4.8 0.00 0.10 0.00 78 1012.5
20180424021316 18 245 1.6 4.8 0.00 0.10 0.00 78 1012.3
20180424020819 18 266 0.0 6.4 0.00 0.10 0.00 78 1012.3
20180424020317 18 254 3.2 6.4 0.00 0.10 0.00 78 1012.3
20180424015829 18 277 1.6 6.4 0.00 0.10 0.00 78 1012.3
20180424015325 18 257 1.6 6.4 0.00 0.10 0.00 78 1012.3
20180424014832 18 253 1.6 6.4 0.00 0.10 0.00 78 1012.4
20180424014325 18 165 1.6 6.4 0.00 0.10 0.00 78 1012.4
20180424013833 18 269 1.6 8.0 0.00 0.10 0.00 78 1012.3
20180424013316 18 259 1.6 8.0 0.00 0.10 0.00 78 1012.3
20180424012825 18 248 1.6 4.8 0.00 0.10 0.00 78 1012.4
20180424012330 18 245 1.6 8.0 0.00 0.10 0.00 78 1012.5
20180424011815 18 220 3.2 8.0 0.00 0.10 0.00 78 1012.6
20180424011325 18 226 3.2 8.0 0.00 0.10 0.00 78 1012.5
20180424010831 18 252 1.6 8.0 0.00 0.10 0.00 78 1012.5
20180424010315 18 250 3.2 8.0 0.00 0.10 0.00 78 1012.6
20180424005821 18 288 3.2 8.0 0.00 0.10 0.00 77 1012.6
20180424005326 18 247 3.2 12.9 0.00 0.10 0.00 77 1012.7
20180424004815 18 240 3.2 12.9 0.00 0.10 0.00 76 1012.7
20180424004317 18 165 1.6 8.0 0.00 0.10 0.00 76 1012.9
20180424003822 18 241 1.6 4.8 0.00 0.10 0.00 76 1012.9
20180424003328 18 77 1.6 9.7 0.00 0.10 0.00 76 1012.9
20180424002817 18 122 3.2 9.7 0.00 0.10 0.00 76 1012.9
20180424002320 18 283 3.2 6.4 0.00 0.10 0.00 75 1012.9
20180424001828 18 274 1.6 8.0 0.00 0.10 0.00 75 1012.9
20180424001331 18 275 1.6 8.0 0.00 0.10 0.00 74 1013.0
20180424000818 18 306 1.6 3.2 0.00 0.10 0.00 73 1013.1
20180424000319 19 147 0.0 3.2 0.00 0.10 0.00 72 1013.1
20180423235827 19 45 1.6 4.8 0.00 0.10 0.03 72 1013.1
20180423235335 19 229 3.2 6.4 0.00 0.10 0.03 72 1013.3
20180423234825 19 297 1.6 6.4 0.00 0.10 0.03 72 1013.3
20180423234332 19 334 1.6 6.4 0.00 0.10 0.03 72 1013.3
20180423233825 19 243 0.0 8.0 0.00 0.10 0.03 72 1013.3
20180423233330 19 277 3.2 8.0 0.00 0.10 0.03 71 1013.3
20180423232823 20 229 1.6 8.0 0.00 0.10 0.03 71 1013.3
20180423232326 20 277 1.6 8.0 0.00 0.10 0.03 71 1013.2
20180423231818 20 256 1.6 6.4 0.00 0.10 0.03 71 1013.3
20180423231323 20 264 1.6 6.4 0.00 0.10 0.03 71 1013.2
20180423230815 20 162 3.2 6.4 0.00 0.10 0.03 71 1013.1
20180423230322 20 243 3.2 6.4 0.00 0.10 0.03 71 1013.2
20180423225818 20 281 1.6 6.4 0.00 0.10 0.03 70 1013.3
20180423225329 20 291 1.6 6.4 0.00 0.10 0.03 70 1013.3
20180423224834 20 255 1.6 8.0 0.00 0.10 0.03 70 1013.4
20180423224323 20 277 1.6 6.4 0.00 0.10 0.03 70 1013.5
20180423223816 20 275 1.6 8.0 0.00 0.10 0.03 70 1013.4
20180423223328 20 277 1.6 8.0 0.00 0.10 0.03 70 1013.5
20180423222817 20 267 1.6 3.2 0.00 0.10 0.03 71 1013.7
20180423222325 20 282 0.0 6.4 0.00 0.10 0.03 71 1013.7
20180423221832 20 269 1.6 6.4 0.00 0.10 0.03 72 1013.8
20180423221321 20 288 1.6 6.4 0.00 0.10 0.03 72 1013.8
20180423220816 20 259 1.6 6.4 0.00 0.10 0.03 73 1013.7
20180423220327 20 243 1.6 6.4 0.00 0.10 0.03 73 1013.8
20180423215824 20 275 1.6 6.4 0.00 0.10 0.03 74 1013.8
20180423215333 19 244 1.6 6.4 0.00 0.10 0.03 76 1013.9
20180423214822 18 264 1.6 6.4 0.00 0.10 0.03 78 1013.9
20180423214319 18 248 1.6 4.8 0.00 0.10 0.03 80 1013.9
20180423213829 18 252 1.6 4.8 0.00 0.10 0.03 80 1013.9
20180423213319 18 259 1.6 4.8 0.00 0.10 0.03 80 1013.9
20180423212817 18 263 1.6 4.8 0.00 0.10 0.03 80 1013.8
20180423212325 18 266 1.6 4.8 0.00 0.10 0.03 79 1013.8
20180423211822 18 271 1.6 4.8 0.00 0.10 0.03 79 1013.8
20180423211332 19 256 3.2 4.8 0.00 0.10 0.03 79 1013.8
20180423210822 19 278 1.6 4.8 0.00 0.10 0.03 78 1013.7
20180423210317 19 276 1.6 4.8 0.00 0.10 0.03 78 1013.7
20180423205827 19 278 1.6 3.2 0.00 0.10 0.03 79 1013.7
20180423205320 19 264 1.6 4.8 0.00 0.10 0.03 79 1013.6
20180423204824 19 257 1.6 4.8 0.00 0.10 0.03 79 1013.6
20180423204318 19 278 1.6 3.2 0.00 0.10 0.03 79 1013.5
20180423203826 19 273 1.6 3.2 0.00 0.10 0.03 78 1013.5
20180423203321 20 271 1.6 3.2 0.00 0.10 0.03 77 1013.5
20180423202824 20 316 1.6 4.8 0.00 0.10 0.03 77 1013.4
20180423202319 20 272 1.6 3.2 0.00 0.10 0.03 76 1013.3
20180423201828 20 270 1.6 4.8 0.00 0.10 0.03 75 1013.2
20180423201322 20 257 1.6 4.8 0.00 0.10 0.03 74 1013.2
20180423200832 20 263 1.6 3.2 0.00 0.10 0.03 73 1013.3
20180423200321 20 296 0.0 1.6 0.00 0.10 0.03 73 1013.1
20180423195817 21 61 0.0 3.2 0.00 0.10 0.03 73 1013.1
20180423195329 20 61 0.0 3.2 0.00 0.10 0.03 73 1013.0
20180423194820 20 34 0.0 3.2 0.00 0.10 0.03 73 1013.1
20180423194316 21 164 0.0 0.0 0.00 0.10 0.03 73 1013.0
20180423193826 21 162 0.0 0.0 0.00 0.10 0.03 73 1012.9
20180423193322 21 167 0.0 1.6 0.00 0.10 0.03 73 1012.9
20180423192834 21 167 0.0 1.6 0.00 0.10 0.03 73 1012.9
20180423192325 21 224 0.0 0.0 0.00 0.10 0.03 72 1012.8
20180423191820 21 224 0.0 1.6 0.00 0.10 0.03 71 1012.7
20180423191331 21 225 0.0 1.6 0.00 0.10 0.03 70 1012.7
20180423190819 22 225 0.0 0.0 0.00 0.10 0.03 69 1012.6
20180423190315 22 225 0.0 1.6 0.00 0.10 0.03 68 1012.5
20180423185826 22 225 0.0 1.6 0.00 0.10 0.03 67 1012.5
20180423185321 22 221 0.0 0.0 0.00 0.10 0.03 66 1012.5
20180423184830 23 221 0.0 1.6 0.00 0.10 0.03 65 1012.4
20180423184317 23 221 0.0 3.2 0.00 0.10 0.03 64 1012.4
20180423183828 23 61 0.0 1.6 0.00 0.10 0.03 63 1012.4
20180423183331 23 44 0.0 3.2 0.00 0.10 0.03 62 1012.3
20180423182819 23 311 0.0 3.2 0.00 0.10 0.03 62 1012.2
20180423182329 23 231 0.0 3.2 0.00 0.10 0.03 61 1012.3
20180423181823 23 342 0.0 1.6 0.00 0.10 0.03 61 1012.2
20180423181329 24 360 0.0 4.8 0.00 0.10 0.03 60 1012.2
20180423180821 24 343 0.0 6.4 0.00 0.10 0.03 59 1012.2
20180423180327 24 55 1.6 6.4 0.00 0.10 0.03 59 1012.2
20180423175820 24 65 0.0 8.0 0.00 0.10 0.03 58 1012.3
20180423175330 24 64 3.2 8.0 0.00 0.10 0.03 56 1012.3
20180423174822 25 39 3.2 8.0 0.00 0.10 0.03 56 1012.2
20180423174330 25 330 3.2 6.4 0.00 0.10 0.03 55 1012.2
20180423173823 25 24 3.2 6.4 0.00 0.10 0.03 56 1012.2
20180423173331 25 76 1.6 8.0 0.00 0.10 0.03 55 1012.1
20180423172822 25 23 1.6 8.0 0.00 0.10 0.03 55 1012.1
20180423172330 25 342 1.6 6.4 0.00 0.10 0.03 56 1012.0
20180423171816 25 10 1.6 8.0 0.00 0.10 0.03 54 1012.1
20180423171327 26 86 0.0 8.0 0.00 0.10 0.03 56 1012.1
20180423170834 26 54 1.6 9.7 0.00 0.10 0.03 53 1012.1
20180423170317 25 107 1.6 8.0 0.00 0.10 0.03 56 1012.2
20180423165825 25 65 1.6 6.4 0.00 0.10 0.03 56 1012.2
20180423165331 25 269 1.6 8.0 0.00 0.10 0.03 54 1012.3
20180423164823 26 24 3.2 8.0 0.00 0.10 0.03 55 1012.3
20180423164333 26 34 1.6 8.0 0.00 0.10 0.03 56 1012.4
20180423163825 25 34 0.0 9.7 0.00 0.10 0.03 57 1012.4
20180423163334 25 265 1.6 9.7 0.00 0.10 0.03 54 1012.4
20180423162827 25 51 1.6 11.3 0.00 0.10 0.03 55 1012.3
20180423162330 25 71 3.2 11.3 0.00 0.10 0.03 54 1012.3
20180423161824 25 33 3.2 11.3 0.00 0.10 0.03 56 1012.4
20180423161334 25 6 4.8 8.0 0.00 0.10 0.03 54 1012.4
20180423160823 25 46 1.6 6.4 0.00 0.10 0.03 54 1012.5
20180423160319 25 332 1.6 9.7 0.00 0.10 0.03 55 1012.4
20180423155828 25 45 1.6 9.7 0.00 0.10 0.03 51 1012.4